HEMAVAN current weather conditions

sailwx.info

Wind from 070 at 4 knots

Air temperature 2.0° C
Visibility: greater than 5.4 NM
Dewpoint 1.0° C

Last reported at 2014-Oct-25 03:20 UTC.
Time now 2014-Oct-25 04:17 UTC

Location: N 65°48' E 015°05'.
View on Google Maps.

See reports from other nearby stations

  
Tides and Currents Weather Stations Pressure Air Temp Water Temp Dewpoint Dewpoint Depression Visibility Wind Speed Wind Dir Waves Ship Positions
date/time (UTC)wind fromknots sea level pressurealtimeterstation pressurevisibilityair tempwater tempwave heightnotes
2014-Oct-25 03:20 070 4 5.4 2.0
2014-Oct-25 02:50 100 5 5.4 2.0
2014-Oct-25 02:20 100 3 5.4 2.0
2014-Oct-25 01:50 160 5 5.4 2.0
2014-Oct-25 01:20 070 4 5.4 2.0 Mist.
2014-Oct-25 00:50 130 6 4.3 2.0 Mist.
2014-Oct-25 00:20 150 4 2.7 2.0 Drizzle.
2014-Oct-24 23:50 110 5 5.4 2.0 Precipitation.
2014-Oct-24 23:20 090 6 5.4 2.0
2014-Oct-24 22:50 060 1 5.4 1.0
2014-Oct-24 22:20 5.4 1.0
2014-Oct-24 21:50 5.4 1.0
2014-Oct-24 21:20 110 2 5.4 1.0
2014-Oct-24 20:50 120 4 5.4 1.0
2014-Oct-24 20:20 2.7 1.0 Mist.
2014-Oct-24 19:50 1.9 1.0 Light rain.
2014-Oct-24 19:20 100 3 4.9 2.0 Light drizzle.
2014-Oct-24 18:50 100 4 4.9 2.0 Light drizzle.
2014-Oct-24 18:20 130 6 5.4 2.0 Precipitation.
2014-Oct-24 17:50 130 8 5.4 2.0
2014-Oct-24 17:20 150 6 5.4 2.0 Light drizzle.
2014-Oct-24 16:50 4.9 2.0 Light drizzle.
2014-Oct-24 16:20 160 6 5.4 2.0 Light drizzle.
2014-Oct-24 15:50 140 6 5.4 2.0
2014-Oct-24 15:20 140 6 5.4 2.0
2014-Oct-24 14:50 150 7 5.4 2.0
2014-Oct-24 14:20 150 8 5.4 3.0
2014-Oct-24 13:50 160 6 5.4 3.0
2014-Oct-24 13:20 160 7 5.4 3.0
2014-Oct-24 12:50 160 6 5.4 3.0
2014-Oct-24 12:20 150 6 5.4 3.0
2014-Oct-24 11:50 150 11 5.4 3.0
2014-Oct-24 11:20 130 11 5.4 3.0
2014-Oct-24 10:50 120 12 5.4 3.0
2014-Oct-24 10:20 150 8 5.4 3.0
2014-Oct-24 09:50 140 9 5.4 3.0
2014-Oct-24 09:20 150 10 5.4 2.0
2014-Oct-24 08:50 150 12 5.4 2.0
2014-Oct-24 08:20 150 12 5.4 2.0
2014-Oct-24 07:50 140 16 5.4 2.0
2014-Oct-24 07:20 130 14 5.4 2.0 Light snow.
2014-Oct-24 06:50 150 11 5.4 1.0 Light snow.
2014-Oct-24 06:20 140 12 2.7 1.0 Light snow.
2014-Oct-24 05:50 140 14 2.7 1.0 Light snow.
2014-Oct-24 05:20 140 8 5.4 1.0 Precipitation.
2014-Oct-24 04:50 140 9 5.4 2.0
2014-Oct-24 04:20 110 10 5.4 2.0
2014-Oct-24 03:50 110 12 5.4 2.0
2014-Oct-24 03:20 160 12 5.4 1.0
2014-Oct-24 02:50 120 10 5.4 2.0
2014-Oct-24 02:20 140 9 5.4 1.0
2014-Oct-24 01:50 160 11 5.4 1.0
2014-Oct-24 01:20 140 11 5.4 1.0
2014-Oct-24 00:50 170 11 5.4 1.0
2014-Oct-24 00:20 120 9 5.4 1.0
2014-Oct-23 23:50 130 10 5.4 1.0
2014-Oct-23 23:20 120 10 5.4 1.0
2014-Oct-23 22:50 170 9 5.4 1.0
2014-Oct-23 22:20 170 7 5.4 1.0
2014-Oct-23 21:50 130 8 5.4 1.0
2014-Oct-23 21:20 120 9 5.4 1.0
2014-Oct-23 20:50 130 12 gusting 23 5.4 1.0
2014-Oct-23 20:20 130 11 5.4 1.0
2014-Oct-23 19:50 120 10 5.4 1.0 Light snow.
2014-Oct-23 19:20 140 8 1.5-0.0 Light snow.
2014-Oct-23 18:50 140 11 4.9-0.0 Light snow.
2014-Oct-23 18:20 170 5 5.4-0.0 Light snow.
2014-Oct-23 17:50 140 12 0.9-0.0 Light snow.
2014-Oct-23 17:20 130 16 2.4 1.0 Light snow.
2014-Oct-23 16:50 130 12 5.4 1.0
2014-Oct-23 16:20 130 13 5.4 1.0
2014-Oct-23 15:50 130 13 5.4 1.0
2014-Oct-23 15:20 130 17 5.4 1.0
2014-Oct-23 14:50 120 15 5.4-0.0 Light snow.
2014-Oct-23 14:20 140 14 0.5-1.0 Light snow.
2014-Oct-23 13:50 140 15 0.8-0.0 Light snow.
2014-Oct-23 13:20 140 15 0.9-0.0 Light snow.
2014-Oct-23 12:50 130 14 0.9-0.0 Light snow.
2014-Oct-23 12:20 140 15 0.9-0.0 Light snow.
2014-Oct-23 11:50 160 17 0.9-0.0 Light snow.
2014-Oct-23 11:20 140 14 1.4-0.0 Light snow.
2014-Oct-23 10:50 140 13 1.3-0.0 Light snow.
2014-Oct-23 10:20 150 18 gusting 29 2.2-0.0 Light snow.
2014-Oct-23 09:50 140 13 0.8-0.0 Light snow.
2014-Oct-23 09:20 140 13 0.5-1.0 Light snow.
2014-Oct-23 08:50 130 13 0.8-1.0 Light snow.
2014-Oct-23 08:20 130 15 0.7-1.0 Light snow.
2014-Oct-23 07:50 140 18 0.6-1.0 Light snow.
2014-Oct-23 07:20 140 20 0.8-1.0 Light snow.
2014-Oct-23 06:50 140 20 1.6-0.0 Light snow.
2014-Oct-23 06:20 140 22 5.4-0.0
2014-Oct-23 05:50 140 20 5.4-0.0
2014-Oct-23 05:20 130 22 5.4-0.0
2014-Oct-23 04:50 130 19 5.4-0.0
2014-Oct-23 04:20 130 19 gusting 30 5.4-0.0